Magazine eBooks Index:


Tags for Magazine eBooks



Added TimeLatest Added Magazine eBooks:

  1. 2011-04-21Deadpool MAX #7 (2011)
  2. 2011-04-21L'EQUIPE (jeudi 21 avril 2011)
  3. 2011-04-21The Red Bulletin KwiecieŃ 2011 - PL
  4. 2011-04-21Dark Horse Presents #1 (2011)
  5. 2011-04-21Builder Magazine April 2011
  6. 2011-04-21DAILY STAR - 21 Thursday, April 2011
  7. 2011-04-21Daily Express - 21 Thursday April 2011
  8. 2011-04-21Worldwide Golf Nr.125 April 2011
  9. 2011-04-21LAND Italia Magazine Nr.10 Marzo / Aprile 2011
  10. 2011-04-21Libération - 21 avril 2011
  11. 2011-04-21DMZ #64 (2011)
  12. 2011-04-21Wingspan February 1992
  13. 2011-04-21Wingspan January 1992
  14. 2011-04-21& co. Aprle 2011
  15. 2011-04-21Le Parisien cahier Paris - 21 avril 2011
  16. 2011-04-21VdG Magazine Maggio 2011
  17. 2011-04-21Kicker Sportmagazin No.33 (21 April 2011)
  18. 2011-04-21Bedtime Stories Vol.3 No.10 (Aug 1935)
  19. 2011-04-21La Provence cahier Immo - 21 avril 2011
  20. 2011-04-21Sport Auto HS No.2 - Guide 2011
  21. 2011-04-21psd Photoshop France - Avril 2011
  22. 2011-04-21Handelsblatt Nr 079 vom 21.04.2011
  23. 2011-04-21GEO Russia - February 2011
  24. 2011-04-21Skaar - King of the Savage Land #2 (of 5) (2011)
  25. 2011-04-21Jornal O Globo - 21 de abril de 2011
  26. 2011-04-21IL GIORNO 21 APRILE 2011
  27. 2011-04-21IL MANIFESTO 21 APRILE 2011
  28. 2011-04-21GQ Magazine / Russia - May 2011
  29. 2011-04-21Veja - Edição 2213 - 20 de abril de 2011
  30. 2011-04-21Iron Siege #1-3 [complete]
  31. 2011-04-21Fraggle Rock V1-2 [complete]
  32. 2011-04-21EL MUNDO 20 21 DE ABRIL 2011
  33. 2011-04-21El País. 21 Abril
  34. 2011-04-21SUD OUEST 21 AVRIL 2011
  35. 2011-04-21Amica - Maggio 2011 / Italy
  36. 2011-04-21The Guardian 2011.04.21
  37. 2011-04-21The Wall Street Journal Europe 2011.04.21
  38. 2011-04-21DiTutto Nr.08 Aprile 2011
  39. 2011-04-21International Herald Tribune 2011.04.21
  40. 2011-04-21The Washington Post 2011.04.21
  41. 2011-04-21Elektronik Informationen No 03 2011
  42. 2011-04-21Amulet Vol.1-Vol.3 (2008-2010)
  43. 2011-04-21MotoSprint - dal 15 al 21 Febbraio 2011 Nr.7
  44. 2011-04-21What Digital Camera UK - May 2011
  45. 2011-04-21Gli Itinerari Gustosi Nr.131 Aprile 2011
  46. 2011-04-21Vogue France - April 2011
  47. 2011-04-21Strandlook - Summer 2011
  48. 2011-04-21Transformers - Heart of Darkness #2 (of 4) (2011)
  49. 2011-04-21Marvel Adventures Super Heroes #13 (2011)
  50. 2011-04-21Marvel Adventures Spider-Man #12 (2011)
  51. 2011-04-21Thunderbolts #156 (2011)
  52. 2011-04-21Vogue Hommes International No.13 - Printemps / été 2011
  53. 2011-04-21Les Échos - 21 avril 2011
  54. 2011-04-21UMag Magazin April No 04 2011
  55. 2011-04-21Eulenspiegel Magazin No 01 2011
  56. 2011-04-21Marie Claire France - May 2011
  57. 2011-04-21Cinema Rock Aprile / Maggio 2011
  58. 2011-04-21LOS ANGELES TIMES 21 APRIL 2011
  59. 2011-04-21American Health & Fitness - April 2011 (Mexico)
  60. 2011-04-21SkyNews – May/June 2011
  61. 2011-04-21Men’s Health Russia – Men's 100 recipes, Sex Issue 2011 (N°1)
  62. 2011-04-21American Splendor #1-17
  63. 2011-04-21$500 Everyday - Make Money With Facebook Wealth Formula!
  64. 2011-04-21Alien Worlds #1-9
  65. 2011-04-21Espacio & Confort - Marzo/Abril 2011
  66. 2011-04-21Young Magazine - 11 April 2011 (N° 17)
  67. 2011-04-21Le Monde - 22 April 2011 ( Supplement)
  68. 2011-04-21Quatro Rodas - Edição 614 - Fevereiro de 2011
  69. 2011-04-21Garden Design No.04 - April 2011
  70. 2011-04-21Tex Willer n. 076 - Deserto bianco
  71. 2011-04-21Sound & Communications - April 2011
  72. 2011-04-21Military Times - May 2011
  73. 2011-04-21MAXIM Detox Russia - May 2011
  74. 2011-04-21Computer Bild Russia - #9(132) May 2011
  75. 2011-04-21Eclipse Magazine #1-4
  76. 2011-04-21Zona 84 #64 to 66 (1987)
  77. 2011-04-21The Economist Audio Edition - April 23rd 2011
  78. 2011-04-21Smithsonian magazine - May 2011
  79. 2011-04-21The Economist - 23rd April-29th April 2011 (PDF)
  80. 2011-04-21Slitz Magazine - April/July 2011
  81. 2011-04-21CHICAGO TRIBUNE 21 APRIL 2011
  82. 2011-04-21Maxim Detox / Russia - May 2011
  83. 2011-04-22Hellblazer #278 (2011)
  84. 2011-04-22Zaaper - Beachwear Summer 2010 Catalog
  85. 2011-04-22LIBERAZIONE 20 21 APRILE 2011
  86. 2011-04-22Super Lotto del 20 Aprile 2011
  87. 2011-04-22Tiny Titans #39 (2011)
  88. 2011-04-22Super Dinosaur #1 (2011) - Removed
  89. 2011-04-22Van Hamme & Dany - Histoire sans heros - Intégrale
  90. 2011-04-22AVVENIRE 20 21 APRILE 2011
  91. 2011-04-22Uncanny X-Force #8 (2011)
  92. 2011-04-22Stan Lee's Soldier Zero #7 (2011)
  93. 2011-04-22Thays & Thamires - Lingerie February 2011 Catalog
  94. 2011-04-22Sport Fishing Magazine May 2011
  95. 2011-04-22Business Spotlight Audio 3/2011
  96. 2011-04-22Tatler Magazine - May 2011 (Russia)
  97. 2011-04-22Vogue Magazine - May 2011 (Russia)
  98. 2011-04-22South Bay Digs - January 21, 2011
  99. 2011-04-22Blue Design Magazine Issue 15
  100. 2011-04-22V for Vendetta - Volume 2
  101. 2011-04-22The Wall Street Journal Asia - 21.04.2011

More...

1593 pages, 159294 Magazine eBooks in total, list all pages->

Search free ebooks in ebookee.com!
Back to Top